Location: ??
(35.1714°N, 128.2806°E)
Time: 14:43:28
(UTC+00:00)

Cosmos 1697 Rocket - Pass Details

Date: 29 October 2020
Orbit: 831 x 845 km, 71.0° (Epoch: 01 December)

Event Time Altitude Azimuth Distance (km) Brightness Sun altitude
Exits shadow 21:01:12 - 305° (NW) 2,527 4.6 -9.8°
Reaches altitude 10° 21:01:26 10° 303° (WNW) 2,464 4.6 -9.7°
Maximum altitude 21:05:16 19° 260° (W) 1,906 4.0 -9.0°
Drops below altitude 10° 21:09:06 10° 217° (SW) 2,456 4.9 -8.2°
Sets 21:12:13 0° 200° (SSW) 3,387 5.8 -7.6°
